Vorticity
7 12 6 10 8 8 10 16 19 12 6 -4 2 4 7 7 4 7 6 5 5 5 5 5 6 6 6 5 6 5 4 3 5 5 4 5 4 8 3 4 4 6 4 8
9 13 9 5 8 8 8 11 24 8 3 10 7 6 8 10 6 5 6 6 5 5 5 6 5 5 4 5 5 4 5 4 4 5 3 4 7 6 5 2 7 5 5 9
8 9 8 9 11 10 6 10 13 17 20 3 13 9 10 8 7 6 4 5 5 6 5 6 6 5 5 5 5 4 5 4 6 5 6 7 5 9 4 5 7 2 17 3
8 7 7 6 10 13 -1 3 6 5 6 2 4 3 7 10 7 6 7 7 6 5 5 5 6 6 7 6 5 6 4 4 5 6 6 5 5 11 2 9 9 8 5 2
7 4 10 7 8 9 14 5 7 9 3 17 3 3 -6 -0 -4 3 6 3 6 6 7 7 7 5 7 5 7 5 5 4 5 5 6 4 10 3 4 7 6 8 -1 6
8 5 8 7 7 9 9 8 9 10 15 10 14 17 10 12 11 9 5 5 6 6 7 5 6 7 6 5 5 5 7 7 7 6 6 6 9 7 6 5 4 5 -1 4
1 8 5 8 8 7 7 9 5 10 12 5 -2 0 2 10 9 9 9 9 5 7 7 6 6 5 6 5 7 5 7 8 6 5 6 6 9 13 3 2 0 -0 2 9
20 2 9 6 8 8 8 6 7 5 8 3 15 9 5 -12 -5 6 13 13 9 9 9 7 5 7 7 4 2 8 9 8 8 3 6 5 9 9 9 3 1 0 4 5
4 18 6 9 6 9 8 4 4 8 4 12 3 1 9 13 14 13 11 12 11 8 8 10 11 12 10 9 10 9 6 6 6 9 7 8 9 9 9 5 5 5 9 4
3 3 14 8 4 7 8 7 6 6 6 6 10 11 -0 6 10 7 3 -2 -2 4 9 9 6 2 -1 -0 4 9 8 9 8 7 8 8 8 5 9 6 6 12 10 3
4 5 5 16 10 4 6 10 8 6 7 4 4 4 7 10 1 -2 0 2 3 8 4 3 4 3 1 5 3 3 8 9 8 9 8 10 9 2 7 8 12 9 5 -1
8 -0 2 -0 9 16 4 7 8 9 7 3 6 7 4 6 7 4 5 5 5 4 13 12 4 0 9 -5 3 4 9 8 10 10 10 5 -2 10 14 11 7 9 2 1
11 10 2 11 6 5 16 7 7 9 9 8 12 11 8 11 16 7 8 13 8 7 6 12 10 13 16 10 14 10 8 9 10 5 -1 9 17 13 7 7 8 2 2 7
13 8 4 1 7 11 18 13 10 6 6 7 7 10 10 12 7 9 12 7 10 7 6 7 6 11 6 7 6 5 11 17 15 17 15 11 7 4 6 6 2 3 6 10
19 -0 12 3 1 8 0 19 11 5 6 4 4 8 5 8 7 9 10 9 10 9 9 8 10 5 7 12 13 8 9 11 10 9 11 3 2 4 4 5 4 2 10 12
4 8 14 6 -8 3 15 2 -4 1 18 22 15 4 15 7 6 5 7 8 7 8 6 9 9 -3 10 13 15 13 18 13 9 8 4 4 2 2 6 7 5 9 13 11
12 5 10 14 8 2 3 17 -1 1 15 14 5 2 5 6 -3 4 4 19 8 5 14 -11 -0 4 20 8 9 11 4 6 7 7 4 2 2 2 7 8 11 10 12 14
64 6 3 12 19 14 7 6 16 1 -8 9 6 -6 7 5 8 6 5 -4 8 13 -1 -2 7 10 10 6 10 3 4 5 6 6 7 4 2 9 12 12 11 11 13 15
8 54 -9 -2 14 13 3 11 15 25 -6 12 7 12 -1 14 -6 2 -0 -4 4 6 6 15 16 12 5 7 6 8 6 6 4 4 3 3 12 15 12 11 8 13 16 21
19 15 23 -10 5 22 16 11 14 17 15 22 11 14 13 16 11 6 13 13 8 13 17 12 9 9 4 -0 3 5 2 2 5 7 9 15 13 9 8 11 17 18 19 26
15 26 36 44 22 -4 11 27 6 5 8 7 -0 3 11 9 9 15 8 4 8 6 5 5 10 7 9 6 2 1 1 3 7 9 13 9 9 13 16 17 17 19 18 17
12 10 8 5 37 27 -10 -7 15 25 28 17 11 11 11 18 12 4 8 10 14 13 14 13 10 3 0 2 5 8 8 11 12 8 13 15 13 19 19 17 18 19 15 16
16 12 13 14 -3 23 24 33 12 -1 12 19 25 21 14 18 13 17 15 14 10 9 8 8 8 12 11 11 15 14 10 14 14 16 15 13 24 18 18 16 16 16 5 0
16 13 11 17 13 14 15 22 29 41 15 7 16 18 15 18 15 12 9 11 8 9 8 13 15 10 13 15 14 15 14 15 13 10 16 25 20 19 14 16 14 10 9 10
6 15 10 5 14 10 14 9 4 5 10 15 16 13 13 11 10 11 13 16 13 15 17 13 11 15 16 16 12 9 9 13 14 18 22 22 11 11 11 9 11 11 9 10
13 6 19 4 6 14 20 23 26 21 20 21 21 16 19 19 18 17 17 17 13 12 12 13 12 11 10 6 8 11 16 19 17 15 24 14 10 3 7 11 10 5 4 7
16 12 19 9 12 9 6 5 -3 1 7 11 14 16 12 12 17 17 11 14 13 17 16 14 12 10 12 15 16 15 13 13 18 10 16 10 -1 10 3 -3 -3 -1 10 15
Height
5749 5753 5758 5761 5764 5768 5770 5774 5778 5784 5785 5788 5789 5793 5797 5798 5799 5800 5801 5802 5803 5803 5802 5803 5802 5802 5800 5799 5797 5796 5793 5791 5788 5787 5782 5779 5776 5769 5763 5757 5752 5745 5737 5736
5736 5740 5744 5749 5752 5756 5760 5763 5767 5770 5774 5776 5780 5785 5787 5788 5791 5792 5793 5794 5795 5795 5795 5796 5795 5794 5793 5791 5789 5788 5786 5783 5780 5777 5775 5771 5768 5762 5754 5748 5743 5738 5730 5725
5722 5727 5731 5736 5740 5745 5749 5752 5755 5760 5763 5767 5770 5774 5776 5779 5781 5783 5784 5786 5787 5787 5787 5787 5787 5786 5785 5783 5781 5779 5777 5775 5771 5769 5765 5759 5757 5753 5746 5741 5736 5728 5726 5716
5707 5713 5718 5723 5727 5731 5736 5739 5745 5750 5752 5758 5760 5764 5766 5770 5773 5774 5775 5777 5778 5778 5778 5777 5778 5778 5776 5775 5773 5770 5768 5766 5762 5761 5756 5751 5749 5745 5737 5729 5725 5717 5715 5706
5692 5699 5704 5709 5713 5717 5724 5728 5735 5739 5743 5745 5747 5751 5758 5761 5763 5764 5766 5767 5768 5768 5768 5769 5769 5767 5767 5767 5763 5761 5759 5754 5750 5751 5748 5742 5741 5735 5730 5722 5716 5709 5702 5697
5677 5683 5690 5696 5701 5706 5713 5717 5721 5725 5731 5734 5736 5743 5746 5749 5751 5753 5756 5756 5757 5758 5757 5759 5757 5757 5757 5756 5755 5752 5749 5744 5739 5736 5735 5731 5730 5726 5718 5713 5705 5698 5690 5683
5660 5667 5675 5682 5687 5693 5698 5705 5708 5710 5719 5722 5728 5730 5735 5737 5739 5743 5745 5746 5748 5749 5747 5748 5747 5747 5746 5745 5744 5741 5739 5734 5729 5724 5722 5718 5715 5712 5704 5699 5693 5685 5679 5669
5643 5651 5659 5667 5674 5680 5685 5691 5695 5699 5705 5712 5714 5720 5722 5724 5728 5731 5733 5736 5737 5737 5737 5737 5736 5737 5736 5734 5733 5730 5728 5724 5718 5713 5710 5707 5707 5701 5693 5687 5685 5674 5667 5658
5625 5635 5644 5652 5660 5665 5671 5678 5682 5686 5691 5699 5705 5706 5710 5713 5717 5719 5722 5724 5724 5725 5726 5726 5724 5724 5724 5722 5722 5722 5718 5713 5709 5703 5698 5693 5693 5686 5680 5675 5672 5663 5655 5647
5608 5618 5627 5637 5644 5651 5657 5666 5668 5672 5677 5689 5690 5694 5699 5701 5704 5706 5710 5712 5712 5713 5715 5714 5714 5713 5712 5710 5710 5709 5705 5700 5696 5691 5684 5683 5680 5672 5667 5663 5658 5648 5641 5634
5590 5603 5611 5620 5628 5635 5641 5652 5656 5660 5665 5675 5677 5681 5686 5689 5692 5695 5699 5698 5700 5702 5702 5702 5702 5699 5699 5698 5699 5696 5693 5687 5683 5680 5674 5670 5666 5660 5656 5650 5643 5636 5629 5620
5571 5586 5597 5605 5612 5620 5626 5636 5642 5645 5650 5661 5666 5668 5671 5675 5678 5682 5685 5687 5689 5689 5688 5689 5686 5687 5685 5687 5684 5684 5680 5676 5672 5670 5664 5657 5652 5649 5643 5636 5631 5623 5616 5607
5552 5567 5581 5591 5598 5606 5612 5621 5629 5631 5637 5644 5651 5655 5659 5662 5665 5669 5671 5673 5676 5675 5675 5675 5675 5672 5673 5672 5671 5669 5665 5661 5659 5655 5653 5646 5640 5637 5630 5624 5617 5609 5601 5592
5533 5548 5563 5575 5585 5593 5599 5604 5614 5617 5623 5627 5638 5642 5645 5649 5652 5654 5657 5660 5661 5661 5661 5660 5660 5662 5660 5659 5657 5656 5653 5649 5645 5642 5638 5632 5630 5624 5618 5611 5604 5596 5588 5579
5518 5534 5546 5559 5570 5579 5587 5592 5598 5602 5607 5615 5623 5628 5631 5634 5637 5640 5643 5646 5647 5647 5646 5646 5648 5648 5645 5645 5643 5643 5640 5636 5632 5628 5625 5621 5617 5611 5605 5597 5590 5583 5574 5566
5501 5517 5530 5543 5555 5565 5574 5577 5582 5588 5595 5597 5602 5609 5616 5621 5624 5627 5629 5632 5633 5633 5634 5633 5634 5635 5632 5628 5629 5630 5626 5621 5618 5615 5612 5608 5603 5597 5591 5584 5577 5569 5560 5551
5487 5503 5515 5526 5539 5549 5555 5560 5571 5581 5586 5586 5587 5590 5599 5604 5610 5614 5616 5618 5619 5620 5620 5619 5620 5620 5618 5616 5616 5616 5611 5608 5605 5602 5598 5594 5589 5584 5577 5570 5562 5553 5545 5536
5475 5486 5502 5512 5522 5531 5540 5549 5559 5567 5570 5570 5569 5575 5586 5591 5596 5601 5604 5605 5606 5605 5604 5606 5606 5606 5604 5603 5604 5600 5596 5594 5591 5588 5584 5580 5574 5568 5562 5555 5547 5538 5530 5523
5465 5473 5485 5497 5506 5516 5525 5534 5542 5550 5555 5553 5553 5562 5572 5579 5584 5587 5590 5590 5588 5589 5589 5591 5592 5592 5591 5590 5587 5584 5582 5580 5577 5573 5569 5564 5558 5552 5546 5539 5531 5524 5517 5511
5460 5464 5474 5484 5495 5504 5511 5519 5525 5528 5531 5533 5539 5549 5557 5566 5570 5572 5575 5572 5571 5569 5574 5574 5575 5578 5578 5573 5569 5568 5566 5563 5561 5557 5552 5547 5542 5537 5530 5524 5518 5511 5505 5500
5453 5460 5467 5474 5483 5491 5495 5501 5507 5511 5515 5521 5530 5537 5543 5549 5554 5557 5557 5554 5554 5554 5559 5560 5560 5565 5561 5554 5553 5552 5550 5547 5544 5541 5537 5532 5526 5521 5516 5510 5505 5500 5494 5489
5449 5455 5460 5465 5470 5477 5482 5487 5494 5498 5505 5513 5521 5527 5532 5535 5539 5540 5541 5539 5540 5541 5547 5546 5548 5550 5542 5538 5538 5536 5534 5532 5529 5525 5521 5517 5513 5508 5503 5498 5493 5490 5484 5481
5442 5448 5453 5458 5461 5466 5472 5477 5485 5491 5496 5502 5508 5515 5518 5520 5524 5525 5527 5525 5527 5531 5532 5533 5535 5529 5526 5525 5524 5522 5520 5518 5514 5510 5506 5503 5500 5495 5491 5486 5481 5479 5476 5471
5437 5442 5448 5452 5455 5461 5468 5474 5479 5483 5489 5494 5498 5502 5507 5508 5511 5512 5514 5512 5515 5516 5520 5520 5515 5513 5512 5511 5510 5508 5505 5503 5500 5497 5493 5490 5486 5483 5481 5476 5472 5469 5466 5461
5435 5438 5443 5448 5453 5459 5464 5468 5471 5476 5480 5483 5487 5492 5498 5498 5499 5502 5502 5501 5501 5504 5504 5502 5500 5500 5499 5498 5496 5494 5491 5488 5486 5484 5481 5478 5475 5473 5470 5467 5463 5459 5455 5451
5432 5436 5441 5446 5450 5455 5459 5462 5465 5467 5471 5475 5479 5482 5485 5487 5490 5491 5489 5490 5489 5490 5489 5487 5487 5486 5485 5484 5483 5480 5478 5476 5474 5472 5470 5467 5465 5464 5460 5457 5454 5450 5446 5441
5430 5435 5440 5444 5447 5451 5454 5457 5461 5463 5468 5470 5471 5474 5476 5478 5478 5479 5479 5479 5479 5478 5476 5475 5474 5473 5473 5472 5471 5468 5466 5465 5463 5461 5459 5457 5455 5453 5450 5447 5444 5440 5435 5431